User: anonymous   Login
Location: Bouchavesnes-Bergen
(49.9859°N, 2.9203°E)
Time: 14:30:16
(UTC+00:00)
Language:

Meteor 1-4 Rocket - Orbit

View from above orbital plane
View from above orbital plane
View from above satellite
View from above satellite

Ground track
Ground track

The orbit data is extracted from the following two-line orbital elements,

1 04394U 70037B   21126.91444503  .00001010  00000-0  32354-4 0  9992
2 04394  81.2394 144.5855 0036828 308.0941  51.6975 15.30720752782230
Epoch (UTC): 06 May 2021 21:56:48
Eccentricity: 0.0036828
inclination: 81.2394°
perigee height: 448 km
apogee height: 499 km
right ascension of ascending node: 144.5855°
argument of perigee: 308.0941°
revolutions per day: 15.30720752
mean anomaly at epoch: 51.6975°
orbit number at epoch: 78223

The dashed part of the orbit path shows where the satellite is in the earth's shadow,  

DLR